Regional Weather Roundup
Issued by NWS Little Rock, AR

Home | Current Version | Previous Version | Graphics & Text | Print | Product List | Glossary On
Versions: 1 2 3 4 5 6 7 8 9 10 11 12 13 14 15 16 17 18 19 20 21 22 23 24 25 26 27 28 29 30 31 32 33 34 35 36 37 38 39 40 41 42 43 44 45 46 47 48 49 50
000
ASUS44 KLZK 121605
RWRLZK

WEATHER ROUNDUP FOR ARKANSAS
NATIONAL WEATHER SERVICE LITTLE ROCK AR
1100 AM CDT SAT JUL 12 2014

NOTE: "FAIR" INDICATES FEW OR NO CLOUDS BELOW 12,000 FEET WITH NO
SIGNIFICANT WEATHER AND/OR OBSTRUCTIONS TO VISIBILITY.

ARZ001-003-010-029-121700-
NORTHWEST ARKANSAS

CITY           SKY/WX    TMP DP  RH WIND       PRES   REMARKS
FAYETTEVILLE   SUNNY     85  71  63 SW12      30.18F HX  90
FORT SMITH     SUNNY     88  72  58 SW7       30.15F HX  94
HARRISON       SUNNY     87  67  51 SW8       30.18F HX  90
BENTONVILLE    SUNNY     84  70  61 SW14      30.19F HX  88
ROGERS         SUNNY     86  68  54 SW15      30.19F HX  89
SILOAM SPGS    SUNNY     88  66  48 SW12G22   30.18F HX  90
HIGHFILL       SUNNY     86  71  60 SW12      30.17F HX  91
SPRINGDALE     SUNNY     84  70  61 SW14      30.20F HX  88
$$

ARZ004-005-016-121700-
NORTH CENTRAL ARKANSAS

CITY           SKY/WX    TMP DP  RH WIND       PRES   REMARKS
BATESVILLE     SUNNY     88  75  66 SW3       30.15F HX  97
FLIPPIN        SUNNY     88  70  55 W6        30.16F HX  92
MTN HOME       SUNNY     85  73  67 VRB5      30.15F HX  91
$$

ARZ040-041-121700-
WEST CENTRAL ARKANSAS

CITY           SKY/WX    TMP DP  RH WIND       PRES   REMARKS
MENA           SUNNY     88  70  55 W7        30.20S HX  92
MOUNT IDA      SUNNY     88  74  63 VRB3      30.16S HX  96
$$

ARZ009-017-025-026-028-121700-
NORTHEAST ARKANSAS

CITY           SKY/WX    TMP DP  RH WIND       PRES   REMARKS
CORNING        LGT RAIN  86  77  74 SW6       30.14F HX  97
JONESBORO      SUNNY     86  75  69 S9        30.15F HX  95
NEWPORT        SUNNY     88  78  72 VRB6      30.16F HX 101
WALNUT RIDGE   SUNNY     86  75  70 S7        30.14S HX  95
BLYTHEVILLE    SUNNY     87  74  64 CALM      30.16F HX  95
$$

ARZ022-023-033-042-044-121700-
CENTRAL ARKANSAS

CITY           SKY/WX    TMP DP  RH WIND       PRES   REMARKS
LITTLE ROCK    SUNNY     88  72  58 S7        30.16F HX  94
N LITTLE ROCK  SUNNY     86  76  71 S5        30.16F HX  96
SEARCY         SUNNY     89  77  67 VRB5      30.17F HX 101
HOT SPRINGS    SUNNY     87  72  60 W3        30.17S HX  93
RUSSELLVILLE   SUNNY     87  74  64 CALM      30.16S HX  95
CLINTON        FAIR      88  75  66 CALM      30.16F HAZE    HX  97
$$

ARZ036-121700-
EAST ARKANSAS

CITY           SKY/WX    TMP DP  RH WIND       PRES   REMARKS
WEST MEMPHIS   SUNNY     86  73  65 CALM      30.15F HX  93
$$

ARZ050-053-066-070-073-121700-
SOUTHWEST ARKANSAS

CITY           SKY/WX    TMP DP  RH WIND       PRES   REMARKS
ARKADELPHIA    FAIR      89  75  63 VRB3      30.16F HX  98
CAMDEN         SUNNY     90  72  55 CALM      30.16S HX  96
TEXARKANA      SUNNY     91  70  49 N5        30.17S HX  96
EL DORADO      SUNNY     88  73  61 VRB3      30.16F HX  95
DE QUEEN       SUNNY     87  74  64 CALM      30.15F HX  95
$$

ARZ056-057-069-121700-
SOUTHEAST ARKANSAS

CITY           SKY/WX    TMP DP  RH WIND       PRES   REMARKS
PINE BLUFF     SUNNY     87  72  60 CALM      30.17S HX  93
MONTICELLO     SUNNY     88  70  55 NW3       30.17S HX  93

$$





USA.gov is the U.S. government's official web portal to all federal, state and local government web resources and services.